STARLINK-1199, 45201

Orbit data source: Space-Track

STARLINK-1199, 45201 is a payload satellite owned by SpaceX/Seattle (US) in LEO that was launched on Mon, 17 Feb 2020 UTC via an FALCON 9 launch vehicle from the Air Force Eastern Test Range (AFETR). Payload-class satellites include a variety of spacecraft equipped with specific instruments for various scientific and technological missions. These include communications satellites like Starlink; space stations such as the ISS; scientific satellites like the Hubble; Earth observation satellites from companies like Planet Labs, Umbra, and HawkEye 360; GPS; miniature CubeSats for education and research; and military/defense satellites.

Loading next visibility...
Identifier
45201, 2020-012Z
Orbit
LEO
Country
Flag of USUS
Related business
Manufacturer
SpaceX/Seattle
Mission
Operational Commercial Communications
Bus & Motor
STARLINK, Unknown motor
Mass
260 kg wet, ~248 kg dry
Launch date (UTC)
2020-02-17 (6 years ago)
Launch vehicle
FALCON 9
Launch site
Air Force Eastern Test Range (AFETR)
Object type
Payload
Rocket body
Debris
Shape & HBR
Box + 1 Pan, 10.1 m
Radar Cross Section
13.562 m², Large (>1 m²)

Expand to show TLE details & history
Last TLE update: 8 hours ago

TLE from 8 hours ago
0 STARLINK-1199
1 45201U 20012Z   25288.50105815  .00002903  00000-0  21368-3 0  9994
2 45201  53.0555 318.3988 0001471 101.9984 258.1170 15.06399770313235
Epoch: 2025-10-15T12:01Z
TLE epoch observation values (Epoch: 2025-10-15T12:01:31.424Z)
Latitude
Longitude
113.74364°
Altitude
548.301 km
Speed
7.589 km/s
True Right ascension
21h 13m 35s
True Declination
0° 00' 00"
Sunlit
Object was in full shadow at epoch
Visualization orbit readout
Latitude
Unknown
Longitude
Unknown
Altitude
Unknown
Speed
Unknown
Apparent Right ascension
Unknown
Apparent Declination
Unknown
Sunlit
N/A
Visualization observer readout
Local Sidereal Time
14:17:27
Azimuth
Unknown
Elevation
Unknown
Doppler factor
Unknown
Orbital elements
Apogee altitude
548.502 km
Perigee altitude
546.464 km
Semi-major axis
6,925.62 km
Eccentricity
0.00015
Inclination
53.0555°
RAAN
318.3988°
Arg. of periapsis
101.9984°
True anomaly
258.10051°
Mean anomaly
258.117°
Eccentric anomaly
258.10875°
Mean motion
3.76578 °/min
Orbital period
95.6 mins
BSTAR
0.00021368
Loading maneuver chart data...
Computing Atmospheric mass density...
Loading historical data...
Loading historical data...
Loading historical data...
Loading historical data...
Loading historical data...
Loading historical data...
Loading historical data...

Documentation

Showing up to 5 results
|